Location: Dehesa de la Cepeda
(40.6574°N, 4.3013°W)
Time: 08:10:31
(UTC+00:00)

Vanguard 1 - Visible Passes

Search period start: 24 July 2021 00:00
Search period end: 03 August 2021 00:00
Orbit: 651 x 3832 km, 34.2° (Epoch: 23 July)

Date Brightness Start Highest point End Pass type
(mag) Time Alt. Az. Time Alt. Az. Time Alt. Az.
24 Jul 13.8 19:44:26 10° W 19:57:40 28° SW 20:14:47 10° SSE visible
25 Jul 14.0 20:07:03 10° W 20:18:43 21° SW 20:33:03 10° S visible
26 Jul 14.1 20:31:07 10° WSW 20:39:45 15° SW 20:49:40 10° SSW visible
